Temperature
13 13 13 13 13 12 12 12 12 12 12 12 11 11 11 11 11 11 11 11 11 11 11 11 11 11 11 11 11 10 10 10 10 10 11 11 11 11 11 11 11 11 11
13 13 13 13 12 12 12 12 12 12 12 12 11 11 11 11 11 11 11 11 10 10 10 10 10 10 10 10 10 10 10 10 10 10 10 10 10 10 10 10 10 11 11
13 13 13 12 12 12 12 12 12 12 12 11 11 11 11 11 10 10 10 10 10 10 10 10 10 10 10 10 10 10 10 10 10 10 10 10 10 10 10 10 10 10 10
13 13 12 12 12 12 12 12 12 11 11 11 11 11 11 10 10 10 10 10 10 10 10 10 10 10 10 10 10 10 10 10 10 10 10 10 10 10 10 10 10 10 10
12 12 12 12 12 12 12 12 12 11 11 11 11 11 11 10 10 10 10 10 10 10 10 10 10 10 10 10 10 10 10 10 10 9 9 9 9 9 9 9 9 10 10
12 12 12 12 12 12 12 12 11 11 11 11 11 11 11 10 10 10 10 10 10 10 10 10 10 10 10 10 10 9 9 9 9 9 9 9 9 9 9 9 9 9 9
12 12 12 12 12 12 12 12 11 11 11 11 11 11 11 10 10 10 10 10 10 10 10 10 10 10 10 9 9 9 9 9 9 9 9 9 9 9 9 9 9 9 9
12 12 12 12 12 12 12 12 12 11 11 11 11 11 11 11 10 10 10 10 10 10 10 10 9 9 9 9 9 9 9 9 9 9 9 9 9 9 9 9 9 9 9
12 12 12 12 12 12 12 12 11 11 11 11 11 11 11 11 11 10 10 10 10 10 10 10 9 9 9 9 9 9 9 9 9 9 9 9 9 9 9 9 9 9 9
12 12 12 12 12 12 12 12 12 12 11 11 11 11 11 11 11 11 10 10 10 10 10 10 10 9 9 9 9 9 9 9 9 9 9 9 9 9 9 9 9 9 9
12 12 12 12 12 12 12 12 12 12 11 11 11 11 11 11 11 11 10 10 10 10 10 10 10 9 9 9 9 9 9 9 9 9 9 9 9 9 9 9 9 9 9
12 12 12 12 12 12 12 12 12 12 11 11 11 11 11 11 11 11 10 10 10 10 10 10 9 9 9 9 9 9 9 9 9 9 9 9 9 9 9 9 9 9 9
12 12 12 12 12 12 12 12 12 12 11 11 11 11 11 11 11 10 10 10 10 10 10 9 9 9 9 9 9 9 9 9 9 9 9 9 9 9 9 9 9 9 9
12 12 12 12 12 12 12 12 12 12 12 11 11 11 11 11 11 11 10 10 10 10 10 9 9 9 9 9 9 9 8 8 8 8 8 8 8 8 8 8 8 8 9
12 12 12 12 12 12 12 12 12 12 12 12 11 11 11 11 11 11 10 10 10 10 10 9 9 9 9 9 9 8 8 8 8 8 8 8 8 8 8 8 8 8 8
12 12 12 12 12 12 12 12 12 12 12 12 11 11 11 11 11 10 10 10 10 10 9 9 9 9 8 8 8 8 8 8 8 8 8 8 7 7 8 8 8 8 8
12 12 12 12 12 12 12 12 12 12 12 12 11 11 11 11 11 11 10 10 10 9 9 9 9 8 8 8 8 8 8 8 7 7 7 7 7 7 7 7 7 7 8
12 12 12 12 12 12 12 12 12 12 12 12 11 11 11 11 11 10 10 10 9 9 9 8 8 8 8 8 8 7 7 7 7 7 7 7 7 7 7 7 7 7 7
12 12 12 12 12 12 12 12 12 12 12 11 11 11 11 11 10 10 10 9 9 9 8 8 8 8 8 8 7 7 7 7 7 7 7 7 7 6 6 6 6 7 7
12 12 12 12 12 12 12 12 12 12 12 11 11 11 11 11 10 10 9 9 9 8 8 8 8 8 7 7 7 7 7 7 7 6 6 6 6 6 6 6 6 6 6
12 12 12 12 12 12 12 12 12 12 11 11 11 11 10 10 10 9 9 9 9 8 8 8 8 7 7 7 7 7 6 6 6 6 6 6 6 6 6 6 6 6 6
12 12 12 12 12 12 12 12 12 12 11 11 11 10 10 10 10 9 9 9 8 8 8 8 7 7 7 7 7 6 6 6 6 6 6 6 5 6 6 5 5 5 5
12 13 13 13 12 12 12 12 12 11 11 11 11 10 10 10 9 9 9 8 8 8 8 7 7 7 7 6 6 6 6 6 5 5 5 5 5 5 5 5 5 5 5
13 13 13 12 12 12 12 12 11 11 11 11 10 10 10 10 9 9 9 8 8 8 7 7 7 7 6 6 6 6 5 5 5 5 5 5 5 5 5 5 5 5 5
13 13 12 12 12 12 12 12 11 11 11 11 10 10 10 9 9 9 8 8 8 8 7 7 7 6 6 6 6 5 5 5 5 5 5 5 4 4 4 4 4 4 4
13 12 12 12 12 12 12 12 11 11 11 11 10 10 10 9 9 9 8 8 8 7 7 7 7 6 6 6 5 5 5 5 5 4 4 4 4 4 4 4 4 4 4
Wind_Speed
1 1 1 1 2 1 2 2 2 2 2 2 2 2 2 2 2 1 2 3 3 3 3 3 4 4 3 3 2 2 2 3 4 4 3 3 3 4 5 5 6 6 7
1 1 1 2 2 2 2 2 1 2 2 2 1 1 2 2 2 2 3 3 3 4 4 4 4 3 3 3 2 3 3 3 4 5 4 3 4 4 4 4 4 5 5
1 1 1 2 2 2 3 2 1 1 2 2 1 1 2 2 3 3 3 3 3 4 4 4 4 3 3 3 3 3 3 3 3 3 4 3 3 3 3 4 4 4 5
1 1 2 3 3 3 2 2 1 1 1 2 2 2 2 2 2 3 3 3 3 4 4 4 4 3 3 3 3 4 3 3 3 3 4 3 3 3 2 3 4 3 4
1 1 3 3 2 2 1 1 1 1 2 2 1 1 1 2 2 3 3 3 3 4 4 4 4 4 4 3 3 3 3 3 3 3 3 3 3 3 3 2 3 4 4
1 2 2 2 1 1 1 1 1 1 2 2 1 1 2 2 4 4 3 2 3 3 4 5 5 4 5 5 5 5 5 4 4 4 3 4 5 4 3 3 3 3 4
1 2 2 1 1 1 1 1 1 1 1 2 2 1 2 4 5 5 4 2 3 3 4 4 4 4 4 4 6 7 7 7 7 6 5 6 5 5 4 4 4 4 5
1 2 2 1 1 1 0 1 1 1 1 2 2 2 2 4 5 5 4 3 3 4 4 4 4 5 5 5 5 5 6 6 6 5 6 7 7 6 5 5 5 4 5
2 2 2 1 1 1 1 2 2 1 1 2 2 2 2 5 5 5 3 2 3 5 5 4 4 5 7 6 4 5 7 7 7 6 7 8 9 9 7 3 2 2 4
3 3 2 2 1 2 2 2 1 1 1 2 2 3 2 3 5 5 3 1 3 4 5 5 6 6 8 6 3 4 6 7 7 7 6 7 6 7 7 6 5 4 4
3 2 2 2 1 2 1 1 1 1 1 2 2 3 3 4 5 5 4 1 2 4 5 5 6 8 8 8 5 4 7 7 6 6 6 5 5 4 5 5 6 6 5
2 2 2 2 1 1 1 1 1 1 1 2 2 4 4 4 4 5 4 3 2 2 4 5 6 10 10 9 7 7 8 6 3 4 4 4 4 5 5 5 5 6 7
2 2 3 2 2 1 1 1 1 1 1 2 2 3 4 4 5 6 6 6 5 3 4 7 9 10 10 7 8 9 6 3 2 3 4 5 4 5 4 4 4 4 5
2 3 3 2 2 2 1 1 1 2 2 2 2 3 4 4 4 4 4 5 6 5 4 7 8 8 7 7 7 6 3 2 2 3 4 4 4 4 3 3 3 3 3
2 2 2 2 1 2 2 2 3 4 4 4 3 3 2 4 5 4 3 4 4 4 4 4 4 5 6 5 5 4 4 3 2 3 3 4 4 4 4 3 2 2 2
1 2 2 1 2 1 2 4 6 5 6 4 5 4 4 5 6 5 6 6 6 5 3 3 4 4 4 5 5 5 4 4 3 3 2 3 4 4 4 4 3 2 3
1 2 2 1 1 2 2 2 3 6 6 5 5 4 4 5 5 6 6 6 6 3 2 3 3 4 4 4 4 3 3 4 4 3 3 3 3 3 4 4 4 3 4
2 2 1 2 2 2 2 2 2 2 3 4 5 5 4 4 4 6 6 5 5 4 2 3 3 4 3 3 3 3 4 4 4 4 4 4 3 3 3 4 4 4 4
2 2 2 2 2 2 1 1 1 1 1 2 3 4 5 4 5 6 4 2 3 3 3 3 3 3 3 3 3 3 3 3 4 4 4 4 4 4 4 4 4 6 5
1 2 2 1 2 2 1 1 1 1 1 1 2 3 3 3 3 4 3 2 2 2 2 3 3 3 3 3 3 3 4 4 5 5 5 5 4 4 5 5 5 5 4
1 2 2 2 1 1 1 1 1 1 1 1 2 2 1 1 2 3 3 3 2 2 2 2 2 3 3 3 3 4 4 4 5 5 5 5 5 5 5 5 5 4 4
1 1 1 1 1 1 1 1 1 1 1 1 2 2 3 2 2 2 3 3 3 2 2 1 2 2 2 3 3 3 4 5 5 6 6 6 5 5 5 5 5 5 4
1 1 1 1 1 1 0 1 0 0 1 1 1 1 2 2 2 2 3 3 3 2 2 2 2 3 3 3 3 2 3 4 5 5 6 6 6 5 5 5 6 6 5
1 1 2 2 1 1 1 1 0 0 0 1 1 1 1 2 2 3 3 3 3 3 2 2 2 3 4 4 3 3 3 4 5 4 6 5 6 5 5 5 5 6 5
1 2 2 1 1 1 0 0 0 0 0 1 1 1 1 2 2 3 3 3 3 3 3 3 3 3 4 5 4 5 7 8 7 6 5 4 5 5 5 5 5 5 5
2 2 1 1 1 1 1 1 0 0 0 1 1 1 1 1 2 2 2 3 3 3 3 3 4 5 6 5 6 7 8 9 9 9 6 4 4 5 5 5 6 5 5
Wind_Direction
289 260 238 262 269 268 250 237 240 244 252 251 254 270 290 298 301 298 291 292 289 290 294 289 285 279 273 272 260 243 233 213 242 269 263 277 278 282 287 277 273 266 262
270 290 261 268 270 272 271 267 260 262 268 263 265 294 304 310 313 296 285 294 289 290 296 302 297 293 283 275 269 262 251 230 223 257 277 279 272 269 276 283 287 281 267
270 271 285 284 276 259 259 267 280 281 293 293 281 290 303 307 312 300 283 281 279 278 279 278 280 283 288 283 274 271 268 266 236 241 269 271 272 276 288 292 291 290 284
243 249 267 266 264 252 253 260 269 281 294 293 282 279 284 293 302 300 298 294 293 290 285 277 274 267 269 276 280 272 268 276 273 264 268 276 277 281 272 281 299 295 290
254 253 265 265 265 262 262 258 271 291 284 278 291 304 303 304 302 306 300 305 302 306 308 299 287 283 282 277 275 269 264 266 272 268 268 281 285 291 282 269 281 293 292
266 271 279 291 298 298 271 281 307 305 293 297 301 297 314 313 314 318 320 307 301 302 306 306 304 302 306 305 295 281 260 246 251 250 258 262 269 267 267 267 270 291 291
285 291 283 283 304 286 269 339 344 305 299 296 291 301 302 305 314 313 310 293 293 294 294 301 307 314 314 302 300 300 290 275 250 231 240 249 252 253 252 265 263 265 266
276 290 287 285 258 265 285 272 257 250 281 273 277 276 290 300 310 311 309 313 307 303 296 292 291 298 302 297 298 304 299 290 273 245 238 248 249 249 241 242 250 272 282
315 304 291 270 236 248 257 263 258 254 285 279 273 272 286 297 308 318 318 322 313 308 304 299 290 289 296 304 301 300 304 302 297 282 262 261 263 261 253 249 258 255 282
310 296 289 275 238 229 243 260 265 245 266 293 297 287 277 289 311 326 322 317 317 312 311 308 301 299 306 311 299 292 297 297 308 317 311 303 286 276 263 227 223 230 254
302 296 288 290 252 223 235 260 280 300 331 334 324 312 306 300 313 329 341 345 299 307 311 310 309 315 314 312 304 277 273 284 298 299 301 302 301 289 278 253 227 218 231
312 310 294 295 262 227 204 280 301 330 341 326 330 326 320 318 321 327 332 317 288 279 288 292 298 312 316 312 306 293 297 301 298 302 301 297 293 292 286 278 256 238 233
311 303 298 302 293 274 214 247 294 309 264 284 304 309 312 320 327 332 338 338 331 305 292 300 311 316 318 313 310 312 313 311 303 299 295 288 277 277 289 296 292 277 269
293 298 300 314 311 310 297 249 226 242 250 272 283 291 303 318 323 331 341 342 341 339 327 322 324 325 324 312 317 323 315 296 288 287 294 294 300 305 302 296 292 305 307
289 302 310 319 299 303 301 270 249 249 230 226 252 254 272 301 298 304 323 326 322 321 329 339 349 344 341 338 335 324 318 326 319 311 310 314 315 319 312 311 297 299 290
295 306 305 310 305 284 295 314 309 288 291 275 249 240 259 264 293 322 328 320 319 325 352 345 337 331 326 324 323 325 326 330 323 315 312 317 322 323 321 320 320 305 290
230 269 295 308 298 278 265 271 308 330 345 330 304 288 273 291 312 330 332 334 338 355 14 336 329 325 324 326 328 333 336 332 330 331 326 322 327 329 326 326 327 320 309
245 255 261 268 264 262 262 268 272 283 315 319 321 321 318 327 331 334 343 0 357 8 354 337 331 326 328 331 336 338 338 341 344 342 338 334 333 329 328 327 323 315 312
250 249 260 266 270 274 287 291 284 280 287 307 328 336 333 344 348 343 2 20 332 333 341 338 329 324 329 334 339 347 353 350 344 340 338 335 333 330 326 320 317 315 313
255 252 261 281 294 305 314 306 281 302 315 324 328 320 339 19 8 353 1 351 334 325 334 340 335 339 337 339 344 351 355 352 345 340 333 329 326 323 321 319 318 316 314
274 290 300 300 282 278 286 256 253 274 289 293 292 313 4 30 345 339 339 335 328 322 332 345 350 352 353 355 354 352 353 347 342 339 333 326 324 323 320 320 319 320 323
262 278 283 267 274 263 245 246 261 306 321 328 322 346 10 12 347 338 332 328 324 319 325 355 3 357 358 359 356 357 356 347 340 336 330 325 322 320 321 322 322 326 328
242 261 292 296 282 233 240 266 275 339 358 18 15 5 5 357 342 333 327 329 338 343 350 17 20 8 7 5 3 4 350 331 320 315 318 320 320 320 322 322 321 324 325
245 256 271 278 261 243 262 284 307 18 89 35 9 349 334 336 337 335 336 342 349 353 2 19 19 6 0 1 4 3 351 331 322 312 308 309 314 316 321 322 321 323 323
269 272 275 266 238 212 135 68 42 51 357 318 313 318 320 328 331 335 340 348 357 8 10 11 1 356 355 360 4 355 346 341 338 331 315 309 313 318 321 321 324 328 327
272 265 255 239 209 163 143 144 171 177 253 279 299 314 315 328 336 341 346 352 356 359 1 4 4 1 358 360 357 353 350 347 344 340 334 320 325 330 335 329 329 333 331
Height
1487 1486 1485 1484 1484 1482 1481 1480 1479 1477 1477 1475 1474 1473 1472 1471 1469 1468 1466 1465 1464 1462 1461 1460 1458 1457 1456 1455 1454 1453 1452 1451 1449 1447 1447 1446 1445 1444 1443 1442 1441 1440 1438
1486 1484 1484 1483 1482 1481 1480 1479 1477 1476 1475 1474 1473 1471 1470 1469 1467 1466 1464 1463 1461 1460 1458 1457 1455 1454 1453 1451 1450 1449 1448 1447 1446 1444 1443 1442 1441 1440 1439 1438 1437 1436 1434
1485 1483 1482 1481 1480 1479 1478 1477 1476 1475 1473 1472 1471 1469 1468 1467 1465 1464 1463 1461 1460 1458 1456 1454 1453 1451 1450 1448 1447 1446 1445 1444 1442 1441 1439 1438 1437 1436 1435 1434 1433 1431 1430
1483 1482 1481 1480 1479 1478 1477 1476 1475 1474 1472 1471 1470 1468 1467 1465 1464 1462 1461 1459 1458 1456 1454 1452 1451 1449 1447 1446 1444 1443 1442 1441 1439 1437 1436 1434 1434 1433 1432 1430 1428 1428 1426
1481 1480 1480 1479 1477 1476 1476 1475 1474 1473 1471 1470 1469 1467 1466 1465 1463 1461 1460 1458 1456 1454 1452 1450 1449 1447 1445 1444 1442 1440 1439 1437 1436 1434 1432 1431 1430 1429 1428 1427 1425 1424 1422
1480 1479 1478 1477 1476 1475 1475 1474 1473 1472 1471 1469 1468 1466 1465 1464 1462 1460 1459 1457 1455 1452 1450 1448 1447 1445 1443 1441 1440 1438 1437 1435 1433 1431 1429 1428 1427 1426 1425 1424 1422 1420 1418
1479 1478 1477 1476 1475 1475 1474 1474 1472 1471 1470 1468 1467 1466 1464 1463 1461 1460 1458 1456 1453 1451 1449 1447 1444 1442 1440 1439 1437 1436 1434 1432 1431 1429 1427 1425 1424 1423 1422 1420 1419 1417 1416
1478 1477 1476 1476 1475 1474 1473 1473 1472 1471 1469 1468 1467 1465 1464 1462 1460 1459 1457 1454 1452 1449 1447 1445 1443 1440 1438 1436 1434 1432 1431 1429 1427 1426 1424 1422 1421 1420 1419 1418 1416 1415 1413
1477 1476 1475 1475 1474 1473 1473 1472 1471 1470 1469 1468 1466 1465 1463 1461 1459 1457 1455 1452 1450 1447 1445 1443 1441 1438 1436 1434 1432 1429 1427 1426 1424 1423 1421 1419 1418 1417 1416 1414 1413 1412 1409
1476 1476 1475 1474 1473 1473 1472 1472 1471 1470 1468 1467 1466 1464 1462 1460 1458 1456 1453 1451 1448 1445 1443 1441 1439 1437 1434 1432 1430 1427 1424 1422 1421 1419 1418 1416 1415 1414 1412 1411 1410 1408 1406
1476 1475 1474 1473 1473 1472 1472 1471 1470 1469 1468 1467 1465 1463 1461 1459 1457 1454 1452 1449 1447 1444 1441 1439 1437 1435 1432 1430 1428 1425 1422 1420 1418 1416 1415 1413 1412 1410 1409 1408 1406 1405 1403
1476 1475 1474 1473 1472 1472 1471 1471 1470 1469 1467 1466 1464 1462 1460 1458 1456 1453 1451 1448 1445 1442 1440 1437 1435 1433 1430 1428 1425 1423 1420 1418 1416 1414 1412 1410 1409 1407 1405 1404 1403 1401 1400
1475 1474 1473 1472 1472 1471 1471 1470 1469 1468 1467 1465 1463 1461 1459 1457 1455 1453 1450 1447 1444 1441 1439 1436 1433 1431 1428 1425 1423 1420 1418 1415 1413 1411 1409 1407 1406 1404 1402 1401 1399 1398 1396
1475 1474 1473 1472 1471 1471 1470 1470 1469 1467 1466 1465 1463 1461 1459 1456 1454 1452 1449 1446 1444 1440 1437 1435 1432 1430 1427 1424 1421 1419 1416 1414 1411 1409 1407 1405 1403 1401 1399 1397 1396 1394 1392
1475 1473 1473 1472 1471 1470 1470 1469 1468 1467 1466 1464 1462 1460 1458 1456 1454 1451 1448 1445 1442 1439 1436 1434 1431 1428 1425 1422 1420 1417 1414 1412 1410 1407 1405 1403 1401 1398 1396 1395 1393 1391 1389
1474 1473 1472 1472 1471 1470 1469 1469 1468 1467 1466 1464 1462 1460 1458 1456 1453 1451 1448 1445 1442 1439 1436 1433 1430 1427 1424 1421 1418 1416 1413 1411 1408 1406 1403 1401 1399 1396 1394 1392 1390 1389 1387
1474 1473 1472 1472 1471 1470 1469 1468 1467 1466 1465 1463 1462 1460 1457 1455 1453 1450 1447 1445 1442 1438 1435 1432 1430 1427 1424 1421 1418 1415 1412 1410 1407 1404 1402 1399 1397 1395 1392 1390 1388 1386 1384
1473 1473 1472 1471 1471 1470 1469 1468 1466 1465 1464 1462 1461 1459 1456 1454 1452 1449 1447 1444 1441 1438 1435 1432 1430 1427 1424 1420 1417 1414 1412 1409 1406 1403 1401 1398 1396 1393 1391 1388 1386 1385 1383
1473 1473 1472 1471 1470 1470 1468 1467 1466 1465 1463 1462 1460 1458 1456 1454 1451 1449 1446 1443 1440 1437 1435 1432 1429 1426 1423 1420 1417 1414 1411 1408 1405 1402 1399 1397 1394 1392 1390 1388 1385 1383 1381
1472 1472 1472 1471 1470 1469 1468 1467 1465 1464 1463 1461 1459 1457 1455 1453 1450 1448 1446 1443 1440 1437 1434 1431 1428 1425 1422 1419 1416 1413 1410 1407 1404 1401 1398 1396 1393 1391 1389 1386 1384 1382 1380
1472 1471 1471 1470 1469 1468 1467 1466 1465 1464 1462 1461 1459 1457 1455 1452 1450 1448 1445 1442 1439 1437 1434 1430 1427 1424 1421 1418 1415 1412 1409 1406 1403 1400 1397 1394 1392 1390 1387 1385 1383 1380 1378
1471 1471 1470 1469 1469 1467 1467 1466 1464 1463 1461 1460 1458 1456 1455 1452 1450 1447 1445 1442 1439 1436 1433 1430 1427 1423 1420 1417 1413 1410 1407 1404 1401 1398 1396 1393 1391 1388 1386 1383 1381 1379 1376
1471 1470 1470 1469 1468 1467 1466 1465 1464 1462 1461 1459 1458 1456 1454 1451 1449 1447 1444 1441 1438 1435 1432 1429 1426 1423 1419 1416 1413 1410 1406 1403 1401 1398 1395 1392 1389 1387 1384 1382 1379 1377 1374
1470 1469 1469 1468 1467 1466 1465 1464 1463 1462 1460 1459 1457 1455 1453 1451 1448 1446 1443 1440 1437 1434 1431 1428 1425 1422 1418 1415 1411 1408 1405 1402 1399 1396 1393 1390 1387 1385 1383 1380 1378 1375 1373
1468 1468 1467 1466 1466 1465 1464 1463 1462 1461 1459 1458 1456 1454 1452 1450 1447 1445 1442 1439 1436 1433 1430 1427 1424 1420 1417 1414 1410 1407 1404 1401 1398 1395 1392 1389 1386 1383 1381 1378 1376 1373 1371
1467 1466 1466 1465 1464 1464 1463 1462 1461 1460 1458 1457 1455 1453 1451 1449 1446 1443 1441 1438 1435 1432 1429 1425 1422 1419 1416 1412 1409 1406 1403 1399 1396 1393 1390 1387 1384 1382 1379 1376 1374 1371 1369